Time,TemperatureF,DewpointF,PressureIn,WindDirection,WindDirectionDegrees,WindSpeedMPH,WindSpeedGustMPH,Humidity,HourlyPrecipIn,Conditions,Clouds,dailyrainin,SoftwareType,DateUTC
2013-09-19 00:14:00,64.0,-99.9,-100.00,South,191,17.0,20.0,-999,-99.99,,,-99.99,,2013-09-19 04:14:00,
2013-09-19 00:25:00,64.0,-99.9,-100.00,South,191,17.0,20.0,-999,-99.99,,,-99.99,,2013-09-19 04:25:00,
2013-09-19 00:34:00,64.0,-99.9,-100.00,South,191,17.0,20.0,-999,-99.99,,,-99.99,,2013-09-19 04:34:00,
2013-09-19 00:40:00,65.0,-99.9,-100.00,South,182,21.0,26.0,-999,-99.99,,,-99.99,,2013-09-19 04:40:00,
2013-09-19 01:13:00,65.0,-99.9,-100.00,South,182,21.0,26.0,-999,-99.99,,,-99.99,,2013-09-19 05:13:00,
2013-09-19 01:23:00,65.0,-99.9,-100.00,South,182,21.0,26.0,-999,-99.99,,,-99.99,,2013-09-19 05:23:00,
2013-09-19 01:34:00,65.0,-99.9,-100.00,South,182,21.0,26.0,-999,-99.99,,,-99.99,,2013-09-19 05:34:00,
2013-09-19 01:40:00,67.0,-99.9,-100.00,South,180,19.0,22.0,-999,-99.99,,,-99.99,,2013-09-19 05:40:00,
2013-09-19 02:13:00,67.0,-99.9,-100.00,South,180,19.0,22.0,-999,-99.99,,,-99.99,,2013-09-19 06:13:00,
2013-09-19 02:22:00,67.0,-99.9,-100.00,South,180,19.0,22.0,-999,-99.99,,,-99.99,,2013-09-19 06:22:00,
2013-09-19 02:32:00,67.0,-99.9,-100.00,South,180,19.0,22.0,-999,-99.99,,,-99.99,,2013-09-19 06:32:00,
2013-09-19 03:12:00,65.0,-99.9,-100.00,East,89,6.0,10.0,-999,-99.99,,,-99.99,,2013-09-19 07:12:00,
2013-09-19 03:42:00,67.0,-99.9,-100.00,East,99,11.0,28.0,-999,-99.99,,,-99.99,,2013-09-19 07:42:00,
2013-09-19 03:52:00,67.0,-99.9,-100.00,East,99,11.0,28.0,-999,-99.99,,,-99.99,,2013-09-19 07:52:00,
2013-09-19 04:02:00,67.0,-99.9,-100.00,East,99,11.0,28.0,-999,-99.99,,,-99.99,,2013-09-19 08:02:00,
2013-09-19 04:22:00,67.0,-99.9,-100.00,East,99,11.0,28.0,-999,-99.99,,,-99.99,,2013-09-19 08:22:00,
2013-09-19 04:40:00,64.0,-99.9,-100.00,SSE,155,16.0,21.0,-999,-99.99,,,-99.99,,2013-09-19 08:40:00,
2013-09-19 04:52:00,66.0,-99.9,-100.00,ESE,116,11.0,20.0,-999,-99.99,,,-99.99,,2013-09-19 08:52:00,
2013-09-19 05:11:00,64.0,-99.9,-100.00,SSE,155,16.0,21.0,-999,-99.99,,,-99.99,,2013-09-19 09:11:00,
2013-09-19 05:22:00,64.0,-99.9,-100.00,SSE,155,16.0,21.0,-999,-99.99,,,-99.99,,2013-09-19 09:22:00,
2013-09-19 05:34:00,64.0,-99.9,-100.00,SSE,155,16.0,21.0,-999,-99.99,,,-99.99,,2013-09-19 09:34:00,
2013-09-19 05:40:00,64.0,-99.9,-100.00,SE,138,17.0,20.0,-999,-99.99,,,-99.99,,2013-09-19 09:40:00,
2013-09-19 06:24:00,64.0,-99.9,-100.00,SE,138,17.0,20.0,-999,-99.99,,,-99.99,,2013-09-19 10:24:00,
2013-09-19 06:33:00,64.0,-99.9,-100.00,SE,138,17.0,20.0,-999,-99.99,,,-99.99,,2013-09-19 10:33:00,
2013-09-19 06:40:00,65.0,-99.9,-100.00,SE,145,13.0,16.0,-999,-99.99,,,-99.99,,2013-09-19 10:40:00,
2013-09-19 07:12:00,65.0,-99.9,-100.00,SE,145,13.0,16.0,-999,-99.99,,,-99.99,,2013-09-19 11:12:00,
2013-09-19 07:22:00,65.0,-99.9,-100.00,SE,145,13.0,16.0,-999,-99.99,,,-99.99,,2013-09-19 11:22:00,
2013-09-19 07:33:00,65.0,-99.9,-100.00,SE,145,13.0,16.0,-999,-99.99,,,-99.99,,2013-09-19 11:33:00,
2013-09-19 07:40:00,65.0,-99.9,-100.00,SSE,155,19.0,21.0,-999,-99.99,,,-99.99,,2013-09-19 11:40:00,
2013-09-19 08:12:00,65.0,-99.9,-100.00,SSE,155,19.0,21.0,-999,-99.99,,,-99.99,,2013-09-19 12:12:00,
2013-09-19 08:22:00,65.0,-99.9,-100.00,SSE,155,19.0,21.0,-999,-99.99,,,-99.99,,2013-09-19 12:22:00,
2013-09-19 08:32:00,65.0,-99.9,-100.00,SSE,155,19.0,21.0,-999,-99.99,,,-99.99,,2013-09-19 12:32:00,
2013-09-19 08:40:00,65.0,-99.9,-100.00,SSE,167,18.0,22.0,-999,-99.99,,,-99.99,,2013-09-19 12:40:00,
2013-09-19 09:22:00,65.0,-99.9,-100.00,SSE,167,18.0,22.0,-999,-99.99,,,-99.99,,2013-09-19 13:22:00,
2013-09-19 09:32:00,65.0,-99.9,-100.00,SSE,167,18.0,22.0,-999,-99.99,,,-99.99,,2013-09-19 13:32:00,
2013-09-19 09:40:00,65.0,-99.9,-100.00,SSE,160,15.0,22.0,-999,-99.99,,,-99.99,,2013-09-19 13:40:00,
2013-09-19 10:22:00,65.0,-99.9,-100.00,SSE,160,15.0,22.0,-999,-99.99,,,-99.99,,2013-09-19 14:22:00,
2013-09-19 10:32:00,65.0,-99.9,-100.00,SSE,160,15.0,22.0,-999,-99.99,,,-99.99,,2013-09-19 14:32:00,
2013-09-19 10:40:00,65.0,-99.9,-100.00,South,174,18.0,21.0,-999,-99.99,,,-99.99,,2013-09-19 14:40:00,
2013-09-19 11:11:00,65.0,-99.9,-100.00,South,174,18.0,21.0,-999,-99.99,,,-99.99,,2013-09-19 15:11:00,
2013-09-19 11:22:00,65.0,-99.9,-100.00,South,174,18.0,21.0,-999,-99.99,,,-99.99,,2013-09-19 15:22:00,
2013-09-19 11:33:00,65.0,-99.9,-100.00,South,174,18.0,21.0,-999,-99.99,,,-99.99,,2013-09-19 15:33:00,
2013-09-19 11:40:00,65.0,-99.9,-100.00,South,182,20.0,26.0,-999,-99.99,,,-99.99,,2013-09-19 15:40:00,
2013-09-19 12:24:00,65.0,-99.9,-100.00,South,182,20.0,26.0,-999,-99.99,,,-99.99,,2013-09-19 16:24:00,
2013-09-19 12:33:00,65.0,-99.9,-100.00,South,182,20.0,26.0,-999,-99.99,,,-99.99,,2013-09-19 16:33:00,
2013-09-19 13:12:00,66.0,-99.9,-100.00,South,178,23.0,27.0,-999,-99.99,,,-99.99,,2013-09-19 17:12:00,
2013-09-19 13:23:00,66.0,-99.9,-100.00,South,178,23.0,27.0,-999,-99.99,,,-99.99,,2013-09-19 17:23:00,
2013-09-19 13:34:00,66.0,-99.9,-100.00,South,178,23.0,27.0,-999,-99.99,,,-99.99,,2013-09-19 17:34:00,
2013-09-19 13:40:00,65.0,-99.9,-100.00,South,185,12.0,14.0,-999,-99.99,,,-99.99,,2013-09-19 17:40:00,
2013-09-19 13:53:00,66.0,-99.9,-100.00,South,178,23.0,27.0,-999,-99.99,,,-99.99,,2013-09-19 17:53:00,
2013-09-19 14:12:00,65.0,-99.9,-100.00,South,185,12.0,14.0,-999,-99.99,,,-99.99,,2013-09-19 18:12:00,
2013-09-19 14:22:00,65.0,-99.9,-100.00,South,185,12.0,14.0,-999,-99.99,,,-99.99,,2013-09-19 18:22:00,
2013-09-19 14:32:00,65.0,-99.9,-100.00,South,185,12.0,14.0,-999,-99.99,,,-99.99,,2013-09-19 18:32:00,
2013-09-19 14:40:00,65.0,-99.9,-100.00,South,189,18.0,21.0,-999,-99.99,,,-99.99,,2013-09-19 18:40:00,
2013-09-19 15:12:00,65.0,-99.9,-100.00,South,189,18.0,21.0,-999,-99.99,,,-99.99,,2013-09-19 19:12:00,
2013-09-19 15:22:00,65.0,-99.9,-100.00,South,189,18.0,21.0,-999,-99.99,,,-99.99,,2013-09-19 19:22:00,
2013-09-19 15:32:00,65.0,-99.9,-100.00,South,189,18.0,21.0,-999,-99.99,,,-99.99,,2013-09-19 19:32:00,
2013-09-19 16:12:00,66.0,-99.9,-100.00,South,172,22.0,28.0,-999,-99.99,,,-99.99,,2013-09-19 20:12:00,
2013-09-19 16:22:00,66.0,-99.9,-100.00,South,172,22.0,28.0,-999,-99.99,,,-99.99,,2013-09-19 20:22:00,
2013-09-19 16:42:00,67.0,-99.9,-100.00,South,174,22.0,0.0,-999,-99.99,,,-99.99,,2013-09-19 20:42:00,
2013-09-19 17:22:00,67.0,-99.9,-100.00,South,177,23.0,30.0,-999,-99.99,,,-99.99,,2013-09-19 21:22:00,
2013-09-19 17:55:00,68.0,-99.9,-100.00,SSE,166,23.0,29.0,-999,-99.99,,,-99.99,,2013-09-19 21:55:00,
2013-09-19 18:14:00,67.0,-99.9,-100.00,South,175,25.0,33.0,-999,-99.99,,,-99.99,,2013-09-19 22:14:00,
2013-09-19 18:24:00,67.0,-99.9,-100.00,South,175,25.0,33.0,-999,-99.99,,,-99.99,,2013-09-19 22:24:00,
2013-09-19 18:43:00,67.0,-99.9,-100.00,South,175,25.0,0.0,-999,-99.99,,,-99.99,,2013-09-19 22:43:00,
2013-09-19 19:23:00,67.0,-99.9,-100.00,South,180,20.0,0.0,-999,-99.99,,,-99.99,,2013-09-19 23:23:00,
2013-09-19 19:53:00,67.0,-99.9,-100.00,South,180,20.0,0.0,-999,-99.99,,,-99.99,,2013-09-19 23:53:00,
2013-09-19 20:12:00,68.0,-99.9,-100.00,South,172,25.0,30.0,-999,-99.99,,,-99.99,,2013-09-20 00:12:00,
2013-09-19 20:42:00,68.0,-99.9,-100.00,South,170,22.0,29.0,-999,-99.99,,,-99.99,,2013-09-20 00:42:00,
2013-09-19 20:52:00,68.0,-99.9,-100.00,South,173,23.0,0.0,-999,-99.99,,,-99.99,,2013-09-20 00:52:00,
2013-09-19 21:02:00,68.0,-99.9,-100.00,South,173,23.0,0.0,-999,-99.99,,,-99.99,,2013-09-20 01:02:00,
2013-09-19 21:22:00,69.0,-99.9,-100.00,SSE,166,23.0,29.0,-999,-99.99,,,-99.99,,2013-09-20 01:22:00,
2013-09-19 21:42:00,69.0,-99.9,-100.00,SSE,166,23.0,29.0,-999,-99.99,,,-99.99,,2013-09-20 01:42:00,
2013-09-19 21:52:00,69.0,-99.9,-100.00,SSE,166,23.0,29.0,-999,-99.99,,,-99.99,,2013-09-20 01:52:00,
2013-09-19 22:12:00,68.0,-99.9,-100.00,South,172,24.0,29.0,-999,-99.99,,,-99.99,,2013-09-20 02:12:00,
2013-09-19 22:23:00,68.0,-99.9,-100.00,South,172,24.0,29.0,-999,-99.99,,,-99.99,,2013-09-20 02:23:00,
2013-09-19 22:32:00,68.0,-99.9,-100.00,South,172,24.0,29.0,-999,-99.99,,,-99.99,,2013-09-20 02:32:00,
2013-09-19 22:53:00,68.0,-99.9,-100.00,South,175,23.0,32.0,-999,-99.99,,,-99.99,,2013-09-20 02:53:00,
2013-09-19 23:13:00,68.0,-99.9,-100.00,SSE,162,21.0,29.0,-999,-99.99,,,-99.99,,2013-09-20 03:13:00,
2013-09-19 23:23:00,68.0,-99.9,-100.00,South,175,23.0,32.0,-999,-99.99,,,-99.99,,2013-09-20 03:23:00,
2013-09-19 23:34:00,68.0,-99.9,-100.00,South,175,23.0,32.0,-999,-99.99,,,-99.99,,2013-09-20 03:34:00,
2013-09-19 23:56:00,67.0,-99.9,-100.00,South,170,24.0,29.0,-999,-99.99,,,-99.99,,2013-09-20 03:56:00,